Flag for U.S.A. Weather past 2 weeks in San Jose, California, U.S.A.

Now
73 °F

Passing clouds.


Feels Like: 77 °F
Forecast: 64 / 87 °F
Wind: 9 mph from Northwest

Location: San Jose International Airport

Current Time: Jul 29, 2014 at 8:52:59 PM

Latest Report: Jul 29, 2014 at 7:53 PM


Visibility: 10 mi

Pressure: 29.97 "Hg

Humidity: 57%

Dew point: 57 °F

Location of San JoseLocation

Historic Weather in San Jose — Graph

°F

San Jose temperature yesterday

Maximum temperature yesterday: 81 °F (at 1:53 PM)
Minimum temperature yesterday: 61 °F (at 3:53 AM)
Average temperature yesterday: 69 °F

Past Weeks' High & Low Weather Summary

 TemperatureHumidityPressure
High94 °F (Jul 25, 3:53 PM)93% (Jul 24, 5:53 AM)30.14 "Hg (Jul 24, 5:53 AM)
Low59 °F (Jul 23, 5:53 AM)17% (Jul 25, 3:53 PM)29.80 "Hg (Jul 25, 5:53 PM)
Average70 °F66%29.97 "Hg
* Reported Jul 14 6:53 PM — Jul 29 6:53 PM, San Jose, Weather by CustomWeather, © 2014

Note: Actual official high and low records may vary slightly from our data, if they occured in-between our weather recording intervals... More about our weather records

Advertising

San Jose weather history for previous 24 hours

 ConditionsComfort  
Time TempWeatherWind HumidityBarometerVisibility
6:53 PM
Jul 29
77 °FPassing clouds.14 mph50%29.96 "Hg10 mi
5:53 PM79 °FPassing clouds.12 mph47%29.96 "Hg10 mi
4:53 PM80 °FPassing clouds.10 mph41%29.97 "Hg10 mi
3:53 PM82 °FPassing clouds.12 mph40%29.98 "Hg10 mi
2:53 PM82 °FPassing clouds.13 mph43%29.99 "Hg10 mi
1:53 PM81 °FPassing clouds.12 mph47%30.00 "Hg10 mi
12:53 PM80 °FPassing clouds.10 mph51%30.01 "Hg10 mi
11:53 AM78 °FPassing clouds.8 mph54%30.02 "Hg10 mi
10:53 AM74 °FPassing clouds.No wind56%30.03 "Hg10 mi
9:53 AM70 °FPassing clouds.No wind68%30.04 "Hg10 mi
8:53 AM66 °FPassing clouds.3 mph78%30.06 "Hg10 mi
7:53 AM64 °FScattered clouds.5 mph84%30.05 "Hg10 mi
6:53 AM63 °FPassing clouds.5 mph87%30.04 "Hg10 mi
5:53 AM62 °FPassing clouds.3 mph86%30.03 "Hg10 mi
4:53 AM63 °FClear.3 mph84%30.04 "Hg10 mi
3:53 AM63 °FClear.6 mph84%30.04 "Hg10 mi
2:53 AM63 °FClear.No wind84%30.04 "Hg10 mi
1:53 AM64 °FClear.3 mph81%30.04 "Hg10 mi
12:53 AM64 °FClear.6 mph81%30.04 "Hg10 mi
11:53 PM
Jul 28
64 °FPassing clouds.6 mph81%30.04 "Hg10 mi
10:53 PM65 °FPassing clouds.6 mph78%30.05 "Hg10 mi
9:53 PM66 °FPassing clouds.5 mph73%30.04 "Hg10 mi
8:53 PM67 °FScattered clouds.8 mph73%30.03 "Hg10 mi
Weather by CustomWeather, © 2014

See weather overviewHow to use our weather pages